Regional Weather Roundup
Issued by NWS

Home | Current Version | Previous Version | Text Only | Print | Product List | Glossary On
Versions: 1 2 3 4 5 6 7 8 9 10 11 12 13 14 15 16 17 18 19 20 21 22 23 24 25 26 27 28 29 30 31 32 33 34 35 36 37 38 39 40 41 42 43 44 45 46 47 48 49 50
028
ASUS44 KJAN 250710
RWRMS

MISSISSIPPI HOURLY WEATHER ROUNDUP
NATIONAL WEATHER SERVICE JACKSON MS
200 AM CDT SAT OCT 25 2014

NOTE: "FAIR: INDICATES FEW OR NO CLOUDS BELOW 12,000 FEET WITH NO
SIGNIFICANT WEATHER AND/OR OBSTRUCTIONS TO VISIBILITY.

MSZ001>002-007>008-010>013-018>021-025>028-034>036-250800-
NORTHWEST MISSISSIPPI

CITY           SKY/WX    TMP DP  RH WIND       PRES   REMARKS
CLARKSDALE     FAIR      55  55 100 CALM      30.11R
CLEVELAND      FAIR      53  52  98 SW3       30.10S
GREENWOOD      CLEAR     50  47  89 CALM      30.11S
GREENVILLE     CLEAR     57  53  86 CALM      30.10S
GRENADA          N/A    N/A N/A N/A MISG        N/A
OLIVE BRANCH   CLEAR     52  52 100 CALM      30.09S
OXFORD         FAIR      50  48  93 CALM      30.12R FOG
TUNICA         SUNNY     54  52  94 S3        30.10S
$$

MSZ003>006-009-014>017-022>024-029>033-037>039-250800-
NORTHEAST MISSISSIPPI

CITY           SKY/WX    TMP DP  RH WIND       PRES   REMARKS
COLUMBUS AFB   CLEAR     46  45  95 CALM      30.10S
CORINTH        FAIR      48  46  93 CALM      30.09S
GOLDN TRIANGLE CLEAR    N/A N/A N/A CALM      30.09S
STARKVILLE     FAIR      46  45  93 CALM      30.11S
TUPELO         CLEAR     52  49  89 CALM      30.10S
$$

MSZ040-058-250800-
CENTRAL MISSISSIPPI

CITY           SKY/WX    TMP DP  RH WIND       PRES   REMARKS
JACKSON INTL   CLEAR     48  46  93 CALM      30.12S
JACKSON HAWKNS CLEAR     51  47  86 CALM      30.12F
MERIDIAN KEY   CLEAR     45  43  93 CALM      30.11S
MERIDIAN NAS   CLEAR     47  45  93 CALM      30.11S
RAYMOND        FAIR      46  41  81 MISG      30.12F
VICKSBURG      CLEAR     45  43  93 CALM      30.13F
$$

MSZ059>079-250800-
SOUTH MISSISSIPPI

CITY           SKY/WX    TMP DP  RH WIND       PRES   REMARKS
BROOKHAVEN     FAIR      46  46 100 CALM      30.13F
COLUMBIA         N/A    N/A N/A N/A MISG        N/A
HATTIESBURG    CLEAR     49  47  93 CALM      30.12R
MCCOMB         CLEAR     56  46  69 N6        30.11F
NATCHEZ        CLEAR     48  45  87 CALM      30.13S
PINE BELT      CLEAR     50  43  76 N5        30.12S
$$

MSZ080>082-250800-
COASTAL MISSISSIPPI

CITY           SKY/WX    TMP DP  RH WIND       PRES   REMARKS
BILOXI         CLEAR     59  47  66 N7        30.08S
PASCAGOULA     CLEAR     45  44  97 CALM      30.08S
GULFPORT       CLEAR     52  47  83 NW3       30.08S
$$



USA.gov is the U.S. government's official web portal to all federal, state and local government web resources and services.